Vorticity
6 7 6 5 6 5 3 3 2 5 7 4 6 11 12 14 17 17 14 9 7 9 10 10 9 8 5 4 4 4 3 3 4 7 8 7 7 6 4 6 6 5 5 4 4 5 6 7 9 12 15 17 17 17 16 16 15 13 13 12 10 9 8
6 6 6 4 3 4 3 3 3 4 6 4 3 8 11 13 17 18 15 11 7 8 10 10 10 8 7 5 4 4 5 5 4 6 7 6 6 6 5 6 7 5 5 4 5 7 7 7 10 14 16 16 15 15 15 14 14 14 15 15 15 14 13
6 5 5 4 2 1 2 3 3 2 4 5 4 7 11 11 14 18 17 12 7 7 9 10 10 8 7 5 4 3 4 6 7 6 6 5 5 6 6 7 7 5 5 4 5 8 7 7 11 12 9 6 4 2 2 2 2 3 3 4 6 7 8
7 6 5 5 3 1 1 2 2 1 3 5 4 5 10 11 11 16 19 15 8 6 8 9 10 9 7 6 5 4 4 6 8 8 6 5 5 6 7 7 6 5 5 4 7 9 7 7 10 7 2 -0 -1 -1 -2 -1 -1 -0 -0 0 1 1 1
6 7 7 6 4 2 2 2 2 1 2 5 5 4 7 10 11 13 18 18 12 6 6 8 9 8 7 6 5 4 5 6 8 7 6 6 6 6 7 7 6 6 5 5 8 9 6 7 9 5 1 0 -1 -1 -1 -0 1 2 3 4 4 4 3
7 7 7 6 5 4 3 3 2 1 2 4 5 5 5 7 10 12 15 18 16 10 6 8 9 8 6 6 5 5 5 7 7 6 5 6 7 6 7 7 6 6 6 7 9 9 6 7 8 4 2 1 -1 -1 0 0 2 4 6 7 7 6 6
10 10 8 7 6 4 5 6 3 1 1 2 3 3 4 5 7 10 14 17 18 14 8 7 11 10 7 5 5 5 5 6 6 5 4 6 6 6 7 7 7 6 7 8 9 9 6 7 8 5 3 1 -1 -1 -1 -1 0 3 6 8 7 6 7
10 12 11 9 7 6 6 8 6 2 1 1 2 3 4 5 4 6 12 17 18 17 12 8 9 12 10 7 5 4 5 7 6 4 4 5 5 6 6 6 6 6 7 7 9 9 6 6 8 6 3 1 -1 -1 -1 -1 -0 2 7 8 7 6 6
10 13 12 9 9 9 7 8 9 6 3 3 4 5 4 4 4 5 9 14 17 19 16 10 8 11 11 8 6 4 4 6 5 3 3 4 5 5 6 6 6 6 7 7 8 8 5 5 8 7 3 -0 -1 -1 -1 -1 1 3 7 8 6 5 6
13 15 12 9 8 9 8 8 9 7 6 6 5 4 3 4 5 4 5 10 15 19 19 14 9 9 12 11 8 5 5 5 5 4 3 4 5 5 5 6 6 6 8 8 8 8 5 5 9 7 2 -1 -2 -2 -2 0 3 6 7 7 5 5 6
16 14 10 8 6 7 8 8 7 7 9 10 7 5 4 4 4 3 4 6 12 17 19 18 12 8 10 12 10 7 5 5 5 4 3 4 5 5 5 5 6 6 8 10 9 7 5 6 8 6 1 -1 -1 -1 -1 0 4 7 7 5 5 6 7
15 12 8 6 4 3 4 4 5 7 11 13 10 6 4 5 3 3 4 5 9 14 17 20 16 10 9 12 12 10 6 6 5 3 4 4 4 5 4 4 5 6 8 11 10 7 6 7 8 5 1 0 1 1 1 1 5 8 7 5 6 6 6
12 9 7 4 4 4 4 5 5 7 12 14 12 8 5 5 4 3 3 4 7 11 15 20 18 11 8 10 13 12 8 6 5 3 4 5 4 5 5 4 5 4 8 12 9 6 6 8 7 4 2 1 1 1 1 2 6 8 6 4 6 7 6
10 7 4 1 2 2 2 4 4 5 10 12 13 10 5 4 4 4 4 3 5 9 13 19 20 13 8 9 12 14 11 8 6 4 4 5 5 5 5 5 5 4 7 11 10 6 6 7 7 4 3 2 1 1 2 3 7 8 5 4 6 7 7
8 5 3 1 2 3 3 5 4 4 6 9 12 12 9 6 4 2 2 1 2 7 10 16 21 15 8 8 11 13 13 10 6 5 4 5 6 6 5 5 5 4 6 10 11 7 4 6 6 4 2 1 2 2 1 4 9 7 4 5 7 7 8
6 4 4 3 4 4 4 3 3 4 5 6 10 14 13 10 6 3 3 2 2 6 9 14 20 17 9 7 10 12 13 11 8 6 5 4 5 5 6 6 6 6 6 8 11 8 4 4 4 3 2 1 1 1 2 6 9 6 3 6 7 6 7
5 5 4 3 3 3 2 2 3 3 3 4 7 13 17 14 8 5 4 3 4 6 8 12 18 18 12 7 8 10 12 12 9 7 6 5 4 5 5 6 6 7 7 7 9 9 6 3 3 2 2 2 1 1 2 7 8 4 3 6 7 5 5
5 6 5 3 1 1 2 4 5 3 1 3 3 7 15 17 11 7 6 7 7 6 7 11 15 18 14 9 7 8 10 11 11 9 8 6 5 4 5 6 7 8 9 9 9 9 7 5 3 3 2 2 2 1 3 7 7 3 3 6 7 5 4
6 3 3 3 1 3 5 5 7 6 2 2 1 4 13 17 13 8 7 8 9 6 6 10 13 14 14 12 9 7 7 9 10 10 11 9 7 6 5 5 6 8 10 10 10 10 9 6 4 4 2 1 1 1 3 6 6 3 3 6 7 5 4
8 5 3 3 3 6 8 4 6 10 6 2 4 8 14 16 13 9 7 7 9 7 6 8 10 11 12 14 12 9 7 7 8 9 10 11 10 9 7 6 6 9 10 10 11 11 10 8 6 5 4 2 2 3 4 6 7 4 4 6 7 5 4
7 7 5 4 6 7 5 2 3 9 10 8 9 11 12 12 11 8 6 6 8 7 5 7 9 9 10 12 12 11 10 8 8 8 9 10 11 10 9 7 6 8 10 9 10 11 11 10 8 7 6 5 4 5 6 7 6 4 4 6 6 6 5
7 7 4 3 5 4 2 3 3 7 12 11 9 9 9 10 8 6 5 6 6 6 6 7 8 8 9 10 11 12 12 11 11 10 10 11 11 10 9 7 6 7 10 10 9 10 13 12 9 8 8 8 7 7 8 8 6 5 5 6 6 5 5
12 9 6 2 2 3 4 6 4 4 8 9 7 6 7 10 8 5 4 4 4 4 4 6 9 9 8 9 10 12 12 12 12 11 11 12 12 11 8 6 6 6 8 10 10 11 14 14 11 9 8 8 9 9 8 6 4 5 5 5 5 5 4
15 13 11 7 4 4 5 7 6 4 4 6 8 5 4 8 8 4 2 2 1 1 2 5 9 10 9 9 9 11 13 15 14 11 11 12 12 11 9 7 7 7 9 12 12 13 16 15 11 9 8 9 10 10 9 5 3 5 5 4 5 5 4
17 15 12 10 10 12 12 11 12 11 6 5 7 5 3 7 7 3 1 1 -0 0 3 7 10 10 9 9 9 10 12 15 15 12 10 11 11 10 10 9 8 8 9 12 14 16 16 13 10 9 9 10 11 11 8 5 4 5 5 4 5 4 3
15 16 17 20 24 28 26 21 20 18 12 9 7 5 7 10 6 1 1 1 1 2 5 9 10 11 11 10 9 10 12 14 16 14 11 11 10 10 10 9 8 9 12 15 17 16 13 10 9 10 10 11 12 11 8 5 5 6 5 4 4 4 3
17 21 26 26 24 23 21 21 23 22 17 16 12 7 9 12 6 1 3 4 3 3 6 9 11 12 12 9 9 12 13 13 16 16 13 11 10 10 10 10 11 14 16 17 15 12 9 9 9 11 12 12 11 9 6 4 4 5 5 4 4 4 3
14 14 12 11 13 14 12 15 22 22 19 20 18 11 10 12 5 1 5 7 5 4 7 11 13 13 11 9 11 13 14 14 15 17 16 14 13 12 13 13 15 16 16 13 11 9 9 10 12 12 12 12 11 9 7 5 5 6 6 6 5 4 4
7 4 1 4 13 16 14 15 18 18 20 23 21 14 12 10 3 0 4 7 5 5 9 12 13 11 9 10 13 15 15 15 16 16 15 15 14 14 14 14 14 13 10 8 8 9 10 10 11 12 11 11 11 9 8 7 6 6 7 7 6 5 5
4 3 3 5 9 12 15 19 19 16 21 27 24 18 15 8 2 4 9 10 8 7 10 11 10 9 10 12 14 15 16 15 15 14 14 13 12 12 13 12 11 10 9 9 9 10 11 11 11 11 11 11 10 9 8 7 6 5 6 6 5 4 3
5 6 6 3 6 11 13 18 19 16 20 26 24 20 15 6 2 7 10 10 10 9 10 10 8 9 13 14 15 16 17 15 13 12 11 11 10 10 11 11 12 12 11 12 12 12 12 11 11 10 9 7 7 7 7 6 4 3 3 5 5 6 6
6 8 6 1 5 13 14 16 17 15 18 24 22 17 12 3 1 6 7 7 9 10 9 8 7 9 14 15 14 14 15 14 12 10 9 9 8 8 9 10 11 11 10 10 11 10 7 6 5 6 8 9 11 12 11 11 11 11 11 13 14 15 15
11 10 5 1 3 10 15 18 18 17 20 21 13 6 4 2 3 6 6 5 7 7 5 4 4 6 11 11 10 11 12 13 14 12 10 10 9 8 11 12 9 8 8 9 8 7 7 9 11 12 14 15 15 14 13 13 14 15 16 18 19 19 18
15 10 1 0 3 6 11 19 22 21 19 14 5 -1 1 4 5 6 5 5 7 7 4 4 4 6 9 9 7 8 11 13 15 14 11 12 12 11 13 12 8 6 6 6 7 9 10 12 12 12 12 11 8 7 7 7 8 9 11 12 14 17 18
13 8 1 1 4 4 5 13 23 25 16 7 5 5 4 4 4 4 4 4 6 7 4 3 6 9 9 7 6 7 9 11 12 13 13 12 12 10 9 8 7 7 6 5 5 5 4 3 3 4 3 2 1 2 3 5 6 6 6 5 5 8 13
9 6 4 3 3 4 4 6 15 23 17 8 6 6 4 4 3 3 6 5 6 9 8 5 7 11 10 7 5 6 8 9 10 11 12 11 9 6 6 7 8 7 6 6 5 3 1 0 0 1 0 -0 1 3 3 4 5 4 1 -0 -0 1 4
7 4 4 4 1 2 6 6 9 17 17 9 7 6 5 5 4 5 7 4 3 10 13 10 9 11 10 7 5 5 6 7 7 8 9 7 6 6 4 5 6 7 6 4 2 1 2 2 1 0 -0 -1 -0 2 1 0 3 5 4 3 2 1 1
6 2 1 3 0 -1 3 5 8 15 16 8 4 4 4 4 5 6 5 5 9 15 17 13 12 13 12 9 8 7 6 5 5 7 8 4 1 3 6 4 4 6 5 4 3 2 1 2 1 1 0 0 1 3 2 0 1 4 6 5 5 4 4
Height
5879 5881 5884 5887 5889 5891 5893 5894 5896 5897 5899 5899 5899 5900 5901 5902 5904 5906 5909 5911 5913 5915 5917 5919 5921 5923 5925 5926 5927 5929 5931 5933 5935 5936 5938 5939 5941 5943 5944 5946 5947 5949 5950 5951 5952 5953 5954 5955 5956 5956 5957 5957 5958 5959 5960 5960 5961 5962 5962 5963 5963 5963 5964
5876 5879 5882 5884 5887 5889 5891 5893 5894 5896 5898 5898 5899 5899 5900 5901 5903 5905 5907 5909 5911 5913 5915 5917 5919 5921 5923 5925 5926 5928 5930 5931 5933 5935 5937 5938 5940 5942 5943 5945 5946 5948 5949 5950 5951 5953 5954 5955 5955 5956 5957 5958 5958 5959 5960 5961 5961 5962 5963 5963 5963 5964 5964
5874 5877 5881 5883 5886 5888 5890 5891 5893 5895 5897 5898 5898 5899 5900 5901 5902 5903 5905 5906 5908 5910 5913 5915 5917 5919 5921 5923 5925 5927 5929 5930 5932 5934 5935 5937 5938 5940 5942 5943 5945 5946 5948 5949 5951 5952 5953 5954 5955 5956 5957 5958 5959 5960 5961 5961 5962 5963 5963 5964 5964 5964 5965
5872 5876 5879 5881 5884 5886 5888 5889 5891 5893 5895 5896 5897 5899 5899 5899 5900 5902 5903 5904 5906 5908 5911 5913 5915 5917 5919 5921 5923 5925 5927 5929 5931 5932 5933 5935 5936 5938 5940 5942 5944 5945 5947 5948 5950 5951 5952 5954 5955 5956 5957 5958 5959 5960 5961 5962 5962 5963 5963 5964 5964 5965 5965
5870 5873 5876 5879 5881 5883 5885 5887 5889 5891 5892 5894 5896 5897 5898 5898 5899 5900 5902 5903 5905 5907 5908 5909 5911 5913 5916 5919 5921 5924 5926 5928 5929 5930 5932 5933 5935 5937 5939 5941 5942 5944 5946 5947 5949 5950 5951 5953 5954 5955 5956 5957 5958 5959 5961 5962 5963 5963 5964 5964 5964 5965 5965
5867 5871 5873 5876 5879 5880 5883 5886 5887 5889 5891 5892 5894 5895 5896 5897 5898 5899 5900 5901 5903 5905 5906 5907 5909 5911 5914 5916 5919 5922 5924 5926 5928 5929 5930 5932 5934 5936 5937 5939 5941 5943 5944 5946 5948 5949 5950 5951 5953 5954 5955 5956 5957 5959 5960 5961 5962 5963 5963 5964 5964 5964 5965
5864 5867 5870 5873 5876 5878 5881 5883 5885 5887 5888 5890 5891 5892 5894 5896 5897 5898 5899 5900 5902 5903 5905 5907 5909 5911 5912 5915 5917 5920 5922 5924 5926 5927 5929 5931 5932 5934 5936 5937 5939 5941 5943 5945 5947 5948 5949 5950 5952 5953 5954 5955 5957 5958 5959 5960 5961 5962 5963 5963 5964 5964 5964
5860 5864 5867 5870 5873 5875 5878 5880 5883 5885 5886 5886 5888 5890 5892 5894 5895 5896 5898 5899 5900 5902 5904 5906 5908 5909 5911 5913 5916 5918 5920 5922 5924 5925 5927 5929 5931 5932 5934 5936 5938 5939 5941 5944 5945 5946 5948 5949 5950 5952 5953 5954 5955 5957 5958 5959 5960 5961 5962 5962 5963 5963 5963
5856 5860 5864 5867 5870 5872 5875 5877 5880 5881 5883 5884 5886 5888 5890 5891 5893 5895 5897 5898 5899 5900 5902 5904 5906 5908 5909 5911 5914 5916 5918 5920 5922 5924 5926 5927 5929 5931 5932 5934 5936 5938 5940 5942 5943 5945 5946 5947 5949 5950 5952 5953 5954 5955 5957 5958 5959 5960 5961 5961 5962 5962 5962
5854 5858 5861 5864 5867 5869 5871 5873 5875 5877 5879 5881 5883 5885 5887 5889 5891 5892 5894 5895 5897 5899 5900 5902 5903 5905 5907 5910 5912 5913 5915 5918 5920 5922 5924 5926 5928 5929 5930 5932 5934 5936 5938 5939 5941 5943 5944 5946 5947 5949 5950 5952 5953 5954 5955 5956 5957 5958 5959 5960 5961 5961 5961
5850 5854 5857 5860 5863 5865 5867 5869 5871 5874 5877 5879 5881 5883 5885 5887 5888 5890 5891 5893 5895 5897 5898 5899 5901 5903 5905 5907 5909 5911 5913 5916 5918 5921 5923 5925 5926 5927 5928 5930 5932 5934 5936 5937 5939 5941 5942 5944 5946 5947 5948 5950 5951 5952 5953 5955 5956 5957 5958 5959 5959 5960 5960
5846 5850 5853 5856 5859 5861 5863 5864 5867 5871 5874 5877 5879 5881 5883 5884 5886 5887 5889 5891 5893 5894 5895 5897 5899 5901 5903 5904 5906 5909 5912 5914 5917 5919 5921 5923 5924 5926 5927 5928 5930 5932 5934 5936 5937 5939 5941 5942 5944 5945 5946 5947 5949 5950 5952 5953 5954 5955 5956 5957 5958 5958 5958
5843 5847 5850 5853 5855 5857 5859 5861 5863 5867 5871 5874 5876 5878 5881 5882 5883 5885 5887 5888 5890 5892 5893 5894 5896 5898 5900 5902 5904 5907 5910 5912 5915 5917 5919 5921 5922 5924 5925 5927 5928 5930 5932 5934 5935 5937 5939 5940 5942 5943 5944 5946 5947 5949 5950 5951 5953 5954 5954 5955 5956 5956 5956
5839 5843 5846 5848 5851 5853 5856 5858 5861 5863 5867 5870 5872 5875 5877 5879 5881 5883 5884 5886 5888 5889 5891 5892 5894 5896 5898 5899 5902 5905 5908 5910 5912 5915 5916 5918 5920 5922 5924 5926 5927 5928 5930 5932 5934 5935 5937 5938 5940 5941 5942 5944 5945 5947 5948 5950 5951 5952 5953 5954 5954 5954 5955
5834 5837 5840 5843 5847 5850 5853 5855 5858 5861 5863 5865 5868 5871 5874 5876 5878 5880 5881 5883 5885 5887 5889 5890 5892 5894 5896 5898 5900 5903 5905 5907 5909 5911 5913 5915 5918 5920 5922 5924 5925 5926 5928 5930 5932 5933 5935 5936 5938 5939 5941 5942 5944 5945 5947 5948 5949 5950 5951 5952 5952 5953 5953
5829 5832 5835 5839 5842 5846 5849 5852 5855 5858 5860 5862 5864 5867 5870 5873 5875 5877 5879 5881 5883 5885 5887 5888 5890 5892 5894 5896 5898 5900 5902 5904 5906 5908 5910 5913 5915 5917 5919 5921 5923 5925 5926 5928 5930 5931 5933 5934 5936 5938 5939 5940 5942 5943 5945 5946 5947 5948 5949 5950 5951 5951 5952
5825 5828 5831 5834 5838 5841 5845 5848 5851 5854 5856 5858 5861 5864 5867 5870 5872 5875 5877 5879 5881 5883 5884 5886 5889 5891 5892 5894 5896 5897 5899 5901 5903 5905 5908 5910 5912 5914 5916 5918 5920 5923 5924 5926 5928 5929 5931 5933 5934 5936 5937 5938 5940 5941 5943 5944 5945 5946 5947 5948 5949 5950 5950
5822 5824 5827 5830 5833 5837 5841 5844 5847 5850 5853 5856 5859 5862 5865 5867 5869 5871 5874 5877 5879 5881 5882 5884 5886 5888 5890 5892 5894 5895 5897 5899 5901 5903 5905 5908 5910 5912 5913 5915 5918 5920 5922 5924 5926 5927 5929 5931 5932 5934 5935 5937 5938 5940 5941 5942 5943 5944 5945 5946 5947 5948 5948
5819 5821 5824 5827 5830 5834 5837 5840 5842 5846 5850 5853 5856 5859 5863 5865 5867 5869 5872 5875 5877 5878 5879 5882 5884 5886 5887 5889 5891 5893 5895 5897 5898 5901 5903 5905 5907 5909 5911 5913 5915 5918 5920 5921 5923 5925 5927 5929 5930 5931 5933 5935 5936 5938 5939 5940 5941 5942 5943 5944 5945 5946 5947
5815 5818 5821 5824 5827 5830 5833 5836 5838 5842 5846 5850 5853 5857 5860 5862 5864 5867 5868 5870 5873 5875 5876 5879 5881 5882 5884 5887 5889 5891 5893 5894 5897 5899 5901 5903 5905 5906 5908 5911 5913 5915 5916 5918 5920 5922 5924 5926 5927 5929 5931 5933 5934 5935 5937 5938 5939 5940 5941 5942 5943 5944 5945
5812 5815 5818 5821 5824 5827 5830 5832 5836 5840 5844 5847 5851 5854 5856 5858 5861 5862 5864 5867 5870 5872 5874 5876 5877 5879 5881 5884 5886 5888 5890 5892 5894 5896 5898 5900 5902 5904 5906 5908 5910 5912 5914 5915 5917 5919 5921 5923 5924 5926 5928 5930 5932 5933 5935 5936 5937 5938 5940 5941 5942 5943 5943
5809 5812 5815 5818 5820 5824 5827 5830 5834 5838 5842 5845 5847 5849 5852 5855 5858 5859 5861 5864 5867 5869 5871 5873 5875 5877 5879 5881 5883 5885 5888 5890 5892 5894 5896 5897 5900 5902 5904 5906 5908 5910 5911 5912 5914 5916 5918 5920 5922 5924 5926 5927 5929 5931 5932 5933 5935 5936 5937 5938 5939 5941 5942
5806 5809 5812 5814 5817 5820 5823 5827 5832 5836 5838 5841 5843 5846 5850 5853 5854 5856 5857 5860 5864 5866 5868 5870 5872 5874 5876 5878 5880 5883 5885 5887 5889 5891 5893 5895 5897 5900 5902 5904 5905 5907 5908 5909 5911 5913 5915 5917 5919 5921 5923 5924 5927 5928 5930 5931 5932 5934 5935 5936 5937 5939 5939
5802 5806 5808 5811 5813 5817 5821 5826 5831 5834 5836 5838 5841 5844 5846 5849 5851 5852 5854 5858 5861 5863 5865 5868 5870 5872 5874 5876 5878 5880 5882 5884 5886 5888 5890 5892 5895 5897 5899 5901 5902 5903 5905 5907 5909 5911 5912 5914 5916 5918 5920 5922 5924 5926 5927 5928 5929 5931 5932 5933 5935 5936 5937
5798 5802 5804 5807 5811 5815 5819 5823 5827 5830 5832 5835 5839 5841 5844 5847 5849 5850 5852 5855 5858 5861 5863 5865 5867 5870 5872 5874 5876 5878 5880 5881 5883 5885 5887 5890 5892 5894 5895 5897 5899 5900 5902 5904 5906 5908 5909 5911 5913 5915 5917 5919 5921 5923 5924 5925 5926 5928 5929 5931 5932 5933 5934
5795 5798 5801 5805 5809 5812 5816 5818 5822 5826 5828 5832 5836 5838 5841 5845 5846 5847 5850 5853 5856 5858 5861 5863 5865 5867 5869 5871 5873 5875 5877 5879 5880 5882 5885 5887 5889 5890 5892 5894 5895 5897 5899 5901 5903 5905 5907 5909 5911 5913 5915 5916 5918 5920 5921 5922 5924 5925 5926 5928 5929 5930 5931
5791 5795 5799 5803 5806 5809 5811 5814 5818 5821 5824 5828 5832 5835 5838 5841 5843 5844 5847 5851 5854 5856 5859 5860 5862 5864 5866 5868 5871 5873 5875 5876 5878 5880 5882 5883 5885 5887 5889 5890 5892 5894 5896 5898 5900 5902 5904 5906 5908 5910 5912 5913 5915 5917 5918 5919 5921 5922 5923 5925 5926 5927 5928
5788 5792 5796 5799 5802 5805 5808 5811 5814 5817 5819 5823 5826 5830 5834 5838 5840 5842 5845 5849 5852 5854 5855 5856 5859 5861 5864 5866 5868 5870 5872 5873 5875 5877 5878 5880 5882 5884 5886 5888 5890 5892 5894 5895 5898 5900 5902 5903 5905 5907 5909 5910 5912 5914 5915 5917 5918 5919 5920 5922 5923 5925 5926
5786 5789 5793 5795 5798 5802 5805 5807 5810 5813 5816 5819 5822 5825 5830 5834 5836 5839 5844 5848 5850 5851 5851 5854 5856 5859 5861 5863 5865 5867 5869 5871 5872 5874 5876 5877 5879 5881 5883 5885 5887 5889 5891 5893 5895 5897 5899 5901 5902 5904 5906 5908 5910 5911 5913 5914 5915 5916 5917 5919 5920 5921 5923
5783 5786 5790 5793 5796 5799 5802 5804 5807 5810 5812 5815 5818 5822 5827 5831 5833 5837 5842 5844 5845 5846 5849 5852 5855 5857 5859 5861 5862 5864 5866 5868 5869 5871 5873 5875 5877 5879 5881 5883 5885 5887 5889 5890 5892 5894 5896 5898 5899 5901 5903 5905 5907 5908 5910 5911 5912 5913 5914 5915 5917 5918 5919
5780 5783 5787 5790 5793 5795 5798 5801 5803 5806 5809 5812 5815 5820 5824 5827 5831 5835 5838 5839 5841 5843 5847 5850 5852 5854 5856 5858 5859 5861 5863 5865 5867 5869 5871 5873 5875 5877 5879 5881 5883 5884 5886 5888 5890 5891 5893 5895 5897 5898 5900 5902 5904 5905 5906 5907 5908 5910 5911 5912 5913 5914 5915
5777 5781 5784 5787 5790 5793 5795 5797 5799 5802 5805 5809 5813 5818 5821 5825 5828 5831 5833 5835 5838 5841 5844 5847 5850 5851 5853 5855 5856 5858 5860 5862 5864 5866 5868 5870 5872 5874 5876 5878 5880 5882 5883 5885 5887 5889 5890 5892 5894 5896 5897 5899 5901 5902 5903 5904 5905 5906 5908 5909 5910 5911 5912
5775 5778 5781 5784 5787 5790 5792 5794 5797 5800 5803 5807 5811 5815 5819 5822 5825 5828 5830 5832 5835 5838 5841 5844 5847 5848 5850 5852 5853 5855 5857 5859 5861 5863 5865 5867 5869 5871 5873 5875 5877 5879 5881 5882 5884 5886 5888 5889 5891 5893 5895 5896 5898 5898 5899 5900 5902 5903 5905 5906 5907 5908 5908
5772 5775 5778 5781 5784 5787 5790 5792 5795 5797 5801 5805 5809 5812 5816 5819 5822 5825 5827 5829 5832 5835 5838 5841 5843 5845 5847 5848 5850 5852 5854 5856 5858 5860 5862 5864 5866 5868 5870 5872 5875 5877 5879 5880 5882 5883 5885 5887 5888 5890 5892 5893 5894 5895 5896 5898 5899 5900 5902 5903 5904 5904 5905
5769 5772 5775 5778 5781 5784 5787 5790 5792 5795 5799 5803 5807 5810 5813 5816 5819 5821 5823 5826 5829 5832 5835 5838 5840 5841 5843 5845 5847 5849 5851 5853 5855 5857 5859 5861 5863 5865 5868 5870 5872 5874 5876 5878 5879 5881 5882 5884 5885 5887 5889 5890 5891 5892 5894 5895 5896 5897 5898 5899 5900 5901 5902
5766 5769 5772 5775 5779 5782 5784 5787 5790 5793 5796 5800 5804 5807 5810 5813 5816 5818 5820 5823 5826 5829 5832 5834 5836 5838 5839 5841 5844 5846 5848 5850 5852 5854 5856 5858 5861 5863 5865 5867 5869 5871 5873 5875 5876 5878 5879 5881 5882 5884 5886 5887 5888 5890 5891 5892 5893 5894 5895 5896 5897 5898 5899
5762 5765 5769 5772 5775 5779 5781 5784 5787 5790 5793 5797 5800 5804 5807 5810 5813 5815 5818 5820 5823 5826 5829 5830 5832 5834 5836 5838 5840 5842 5844 5846 5848 5851 5853 5855 5857 5860 5862 5864 5866 5868 5870 5872 5873 5874 5876 5878 5879 5881 5882 5884 5885 5887 5888 5889 5890 5891 5892 5893 5894 5894 5895
5759 5762 5765 5768 5772 5775 5778 5781 5784 5787 5790 5793 5797 5800 5804 5807 5810 5812 5815 5817 5819 5822 5824 5826 5828 5830 5832 5834 5836 5837 5839 5841 5844 5846 5849 5851 5853 5855 5857 5860 5862 5864 5866 5868 5870 5871 5873 5874 5876 5877 5879 5880 5882 5883 5884 5885 5886 5887 5888 5889 5890 5891 5891